Kalispell, MT

9:49 AM MST on January 19, 2018 (GMT -0700)
Glacier Park International

Weather History for KGPI - January, 2015

Change the Weather History Date:

Monday, January 5, 2015

  Actual Average Record
Temperature  
Mean Temperature 19 °F 22 °F  
Max Temperature 25 °F 30 °F 52 °F (2012)
Min Temperature 12 °F 15 °F -30 °F (1979)
Degree Days  
Heating Degree Days 46 43  
Month to date heating degree days 254 215  
Since 1 July heating degree days 3481 3729  
Cooling Degree Days 0 0  
Month to date cooling degree days 0 0  
Year to date cooling degree days 0 0  
Moisture  
Dew Point 17 °F    
Average Humidity 90    
Maximum Humidity 96    
Minimum Humidity 84    
Precipitation  
Precipitation 0.93 in 0.05 in 0.93 in (2015)
Month to date precipitation 1.59 0.25  
Year to date precipitation 1.59 0.25  
Snow  
Snow 12.30 in - - ()
Month to date snowfall 21.9  
Year to date snowfall 21.9  
Since 1 July snowfall 48.4  
Snow Depth 18.00 in    
Sea Level Pressure  
Sea Level Pressure 30.15 in    
Wind  
Wind Speed 0 mph (WSW)    
Max Wind Speed 5 mph    
Max Gust Speed 5 mph    
Visibility 2 miles    
Events Fog , Rain , Snow    
T = Trace of Precipitation, MM = Missing Value Source: NWS Daily Summary

Daily Weather History Graph

Daily Weather History Graph

Search for Another Location

Airport or City:

Trip Planner

Search our weather history database for the weather conditions in past years. The results will help you decide how hot, cold, wet, or windy it might be!

Date:

Astronomy

Jan. 05, 2015 Rise Set
Actual Time 8:27 AM MST 4:57 PM MST
Civil Twilight 7:51 AM MST 5:33 PM MST
Nautical Twilight 7:11 AM MST 6:13 PM MST
Astronomical Twilight 6:34 AM MST 6:51 PM MST
Moon 6:03 PM MST (1/5) 8:20 AM MST (1/5)
Length of Visible Light 9h 42m
Length of Day
8h 29m
Full, 100% of the Moon is Illuminated
Jan 5
Full
Jan 13
Last Quarter
Jan 20
New
Jan 26
First Quarter
Feb 3
Full

Hourly Weather History & Observations

Time (MST) Temp. Windchill Dew Point Humidity Pressure Visibility Wind Dir Wind Speed Gust Speed Precip Events Conditions
12:06 AM 12.0 °F - 10.0 °F 92% 29.98 in 0.5 mi Calm Calm - 0.01 in Fog , Snow Snow
12:55 AM 12.0 °F - 10.0 °F 92% 30.12 in 0.5 mi Calm Calm - 0.10 in Fog , Snow Light Snow
1:55 AM 12.0 °F - 10.0 °F 92% 30.09 in 0.8 mi Calm Calm - 0.08 in Snow Light Snow
2:55 AM 12.9 °F - 10.0 °F 88% 30.09 in 0.8 mi Calm Calm - 0.09 in Snow Light Snow
3:13 AM 12.9 °F - 10.0 °F 88% 29.94 in 0.8 mi Calm Calm - 0.02 in Snow Light Snow
3:41 AM 12.9 °F - 10.9 °F 92% 29.94 in 1.0 mi Calm Calm - 0.05 in Snow Light Snow
3:55 AM 12.9 °F - 10.0 °F 88% 30.09 in 1.0 mi Calm Calm - 0.06 in Snow Light Snow
4:29 AM 14.0 °F - 10.9 °F 88% 29.93 in 1.0 mi Calm Calm - 0.03 in Snow Light Snow
4:55 AM 14.0 °F - 10.9 °F 88% 30.09 in 1.2 mi Calm Calm - 0.04 in Snow Light Snow
5:05 AM 14.0 °F - 10.9 °F 88% 29.94 in 1.8 mi Calm Calm - 0.00 in Snow Light Snow
5:17 AM 14.0 °F - 12.0 °F 92% 29.94 in 2.0 mi Calm Calm - 0.01 in Snow Light Snow
5:25 AM 14.0 °F - 12.0 °F 92% 29.94 in 1.8 mi Calm Calm - 0.01 in Snow Light Snow
5:55 AM 15.1 °F - 12.0 °F 88% 30.10 in 1.8 mi Calm Calm - 0.02 in Snow Light Snow
6:34 AM 15.1 °F - 12.0 °F 88% 29.96 in 1.2 mi Calm Calm - 0.03 in Snow Light Snow
6:55 AM 15.1 °F - 12.9 °F 91% 30.12 in 1.0 mi Calm Calm - 0.04 in Snow Light Snow
7:22 AM 16.0 °F - 12.9 °F 88% 29.98 in 1.0 mi Calm Calm - 0.03 in Snow Light Snow
7:55 AM 16.0 °F - 14.0 °F 92% 30.16 in 0.5 mi Calm Calm - 0.05 in Fog , Snow Snow
8:11 AM 16.0 °F - 14.0 °F 92% 30.01 in 0.5 mi Calm Calm - 0.01 in Fog , Snow Snow
8:55 AM 17.1 °F - 14.0 °F 88% 30.20 in 0.2 mi Calm Calm - 0.05 in Fog , Snow Snow
9:03 AM 17.1 °F - 14.0 °F 88% 30.05 in 0.5 mi Calm Calm - 0.01 in Fog , Snow Snow
9:55 AM 18.0 °F - 15.1 °F 88% 30.24 in 0.5 mi Calm Calm - 0.05 in Fog , Snow Snow
10:34 AM 19.0 °F - 15.1 °F 85% 30.10 in 0.5 mi Calm Calm - 0.03 in Fog , Snow Snow
10:55 AM 19.0 °F - 16.0 °F 88% 30.25 in 0.5 mi Calm Calm - 0.04 in Fog , Snow Snow
11:37 AM 19.9 °F - 17.1 °F 89% 30.12 in 0.8 mi Calm Calm - 0.03 in Snow Light Snow
11:51 AM 19.4 °F - 17.6 °F 93% 30.12 in 1.2 mi Calm Calm - 0.04 in Snow Light Snow
11:55 AM 21.0 °F - 17.1 °F 85% 30.25 in 1.0 mi Calm Calm - 0.04 in Snow Light Snow
12:23 PM 21.9 °F - 18.0 °F 85% 30.12 in 0.8 mi Calm Calm - 0.01 in Snow Light Snow
12:44 PM 21.0 °F - 19.0 °F 92% 30.12 in 1.0 mi Calm Calm - 0.02 in Snow Light Snow
12:53 PM 21.2 °F - 19.4 °F 93% 30.12 in 0.5 mi Calm Calm - 0.03 in Fog , Snow Snow
12:55 PM 21.0 °F - 19.0 °F 92% 30.26 in 0.5 mi Calm Calm - 0.03 in Fog , Snow Snow
1:23 PM 21.9 °F - 19.0 °F 89% 30.12 in 0.5 mi Calm Calm - 0.02 in Fog , Snow Snow
1:55 PM 21.9 °F - 19.9 °F 92% 30.27 in 0.8 mi Calm Calm - 0.04 in Snow Light Snow
2:55 PM 21.9 °F - 19.9 °F 92% 30.28 in 0.8 mi Calm Calm - 0.03 in Snow Light Snow
3:47 PM 23.0 °F - 19.9 °F 88% 30.16 in 0.5 mi Calm Calm - 0.04 in Fog , Snow Snow
3:55 PM 23.0 °F - 19.9 °F 88% 30.30 in 0.5 mi Calm Calm - 0.05 in Fog , Snow Snow
4:55 PM 23.0 °F - 21.0 °F 92% 30.32 in 0.8 mi Calm Calm - 0.05 in Snow Light Snow
5:06 PM 23.0 °F - 21.0 °F 92% 30.18 in 1.0 mi Calm Calm - 0.00 in Snow Light Snow
5:19 PM 23.0 °F - 21.0 °F 92% 30.19 in 1.5 mi Calm Calm - 0.01 in Snow Light Snow
5:37 PM 23.0 °F - 21.0 °F 92% 30.18 in 1.2 mi Calm Calm - 0.02 in Snow Light Snow
5:52 PM 23.0 °F - 21.2 °F 93% 30.18 in 1.8 mi Calm Calm - 0.02 in Snow Light Snow
5:55 PM 23.0 °F - 21.0 °F 92% 30.32 in 2.0 mi Calm Calm - 0.03 in Snow Light Snow
6:55 PM 24.1 °F - 21.9 °F 91% 30.32 in 3.0 mi Calm Calm - 0.01 in Snow Light Snow
7:07 PM 24.1 °F - 21.0 °F 88% 30.19 in 2.5 mi Calm Calm - 0.01 in Snow Light Snow
7:16 PM 24.1 °F - 21.0 °F 88% 30.20 in 3.0 mi Calm Calm - 0.01 in Snow Light Snow
7:52 PM 24.8 °F 20.5 °F 21.2 °F 86% 30.21 in 6.0 mi WSW 3.5 mph - 0.02 in Rain Light Freezing Rain
7:55 PM 24.1 °F - 21.9 °F 91% 30.35 in 7.0 mi Calm Calm - 0.02 in Rain Light Freezing Rain
8:04 PM 24.1 °F - 21.9 °F 91% 30.21 in 8.0 mi Calm Calm - 0.00 in   Overcast
8:55 PM 24.1 °F - 21.9 °F 91% 30.36 in 5.0 mi Calm Calm - 0.00 in Rain Light Freezing Rain
9:40 PM 24.1 °F - 23.0 °F 96% 30.24 in 10.0 mi Calm Calm - 0.01 in   Overcast
9:55 PM 24.1 °F - 21.9 °F 91% 30.37 in 10.0 mi Calm Calm - 0.01 in   Overcast
10:55 PM 24.1 °F - 21.9 °F 91% 30.37 in 10.0 mi Calm Calm - N/A   Overcast
11:55 PM 24.1 °F - 21.9 °F 91% 30.36 in 10.0 mi Calm Calm - 0.00 in   Overcast